owner,sensor,date,latitude,longitude,vertical_datum,mass_concentration_of_oxygen_in_sea_water,qcFlag 
DISL,ioos:station:DISL:DISL:1,2012-12-01T00:00:00Z,30.2513,-88.0778,6.829,7.5,1111122 
DISL,ioos:station:DISL:DISL:1,2012-12-01T00:30:00Z,30.2513,-88.0778,6.933,7.53,1111122 
DISL,ioos:station:DISL:DISL:1,2012-12-01T01:00:00Z,30.2513,-88.0778,7.04,7.18,1111122 
DISL,ioos:station:DISL:DISL:1,2012-12-01T01:30:00Z,30.2513,-88.0778,7.08,7.1,1111122 
DISL,ioos:station:DISL:DISL:1,2012-12-01T02:00:00Z,30.2513,-88.0778,7.18,7.03,1111122 
DISL,ioos:station:DISL:DISL:1,2012-12-01T02:30:00Z,30.2513,-88.0778,7.27,7.01,1111122 
DISL,ioos:station:DISL:DISL:1,2012-12-01T03:00:00Z,30.2513,-88.0778,7.39,6.95,1111122 
DISL,ioos:station:DISL:DISL:1,2012-12-01T03:30:00Z,30.2513,-88.0778,7.37,6.95,1111122 
DISL,ioos:station:DISL:DISL:1,2012-12-01T04:00:00Z,30.2513,-88.0778,7.43,6.91,1111122 
DISL,ioos:station:DISL:DISL:1,2012-12-01T04:30:00Z,30.2513,-88.0778,7.65,7.23,1111122 
DISL,ioos:station:DISL:DISL:1,2012-12-01T05:00:00Z,30.2513,-88.0778,7.45,7.49,1111122 
DISL,ioos:station:DISL:DISL:1,2012-12-01T05:30:00Z,30.2513,-88.0778,7.41,7.92,1111122 
DISL,ioos:station:DISL:DISL:1,2012-12-01T06:00:00Z,30.2513,-88.0778,7.47,8.65,1111122 
DISL,ioos:station:DISL:DISL:1,2012-12-01T06:30:00Z,30.2513,-88.0778,7.45,8.86,1111122 
DISL,ioos:station:DISL:DISL:1,2012-12-01T07:00:00Z,30.2513,-88.0778,7.31,8.93,1111122 
DISL,ioos:station:DISL:DISL:1,2012-12-01T07:30:00Z,30.2513,-88.0778,7.29,8.99,1111122 
DISL,ioos:station:DISL:DISL:1,2012-12-01T08:00:00Z,30.2513,-88.0778,7.24,8.89,1111122 
DISL,ioos:station:DISL:DISL:1,2012-12-01T08:30:00Z,30.2513,-88.0778,7.2,8.66,1111122 
DISL,ioos:station:DISL:DISL:1,2012-12-01T09:00:00Z,30.2513,-88.0778,7.06,8.69,1111122 
DISL,ioos:station:DISL:DISL:1,2012-12-01T09:30:00Z,30.2513,-88.0778,6.959,8.37,1111122 
DISL,ioos:station:DISL:DISL:1,2012-12-01T10:00:00Z,30.2513,-88.0778,6.752,8.44,1111122 
DISL,ioos:station:DISL:DISL:1,2012-12-01T10:30:00Z,30.2513,-88.0778,6.766,8.71,1111122 
DISL,ioos:station:DISL:DISL:1,2012-12-01T11:00:00Z,30.2513,-88.0778,6.68,8.7,1111122 
DISL,ioos:station:DISL:DISL:1,2012-12-01T11:30:00Z,30.2513,-88.0778,6.578,8.69,1111122 
DISL,ioos:station:DISL:DISL:1,2012-12-01T12:00:00Z,30.2513,-88.0778,6.56,8.74,1111122 
DISL,ioos:station:DISL:DISL:1,2012-12-01T12:30:00Z,30.2513,-88.0778,6.452,8.77,1111122 
DISL,ioos:station:DISL:DISL:1,2012-12-01T13:00:00Z,30.2513,-88.0778,6.407,8.79,1111122 
DISL,ioos:station:DISL:DISL:1,2012-12-01T13:30:00Z,30.2513,-88.0778,6.374,8.78,1111122 
DISL,ioos:station:DISL:DISL:1,2012-12-01T14:00:00Z,30.2513,-88.0778,6.315,8.78,1111122 
DISL,ioos:station:DISL:DISL:1,2012-12-01T14:30:00Z,30.2513,-88.0778,6.268,8.81,1111122 
DISL,ioos:station:DISL:DISL:1,2012-12-01T15:00:00Z,30.2513,-88.0778,6.231,8.87,1111122 
DISL,ioos:station:DISL:DISL:1,2012-12-01T15:30:00Z,30.2513,-88.0778,6.154,8.93,1111122 
DISL,ioos:station:DISL:DISL:1,2012-12-01T16:00:00Z,30.2513,-88.0778,6.191,8.98,1111122 
DISL,ioos:station:DISL:DISL:1,2012-12-01T16:30:00Z,30.2513,-88.0778,6.099,9.11,1111122 
DISL,ioos:station:DISL:DISL:1,2012-12-01T17:00:00Z,30.2513,-88.0778,6.143,9.09,1111122 
DISL,ioos:station:DISL:DISL:1,2012-12-01T17:30:00Z,30.2513,-88.0778,6.192,9.06,1111122 
DISL,ioos:station:DISL:DISL:1,2012-12-01T18:00:00Z,30.2513,-88.0778,6.17,8.94,1111122 
DISL,ioos:station:DISL:DISL:1,2012-12-01T18:30:00Z,30.2513,-88.0778,6.208,8.55,1111122 
DISL,ioos:station:DISL:DISL:1,2012-12-01T19:00:00Z,30.2513,-88.0778,6.27,8.37,1111122 
DISL,ioos:station:DISL:DISL:1,2012-12-01T19:30:00Z,30.2513,-88.0778,6.246,8.36,1111122 
DISL,ioos:station:DISL:DISL:1,2012-12-01T20:00:00Z,30.2513,-88.0778,6.292,8.34,1111122 
DISL,ioos:station:DISL:DISL:1,2012-12-01T20:30:00Z,30.2513,-88.0778,6.331,8.37,1111122 
DISL,ioos:station:DISL:DISL:1,2012-12-01T21:00:00Z,30.2513,-88.0778,6.394,8.35,1111122 
DISL,ioos:station:DISL:DISL:1,2012-12-01T21:30:00Z,30.2513,-88.0778,6.457,8.54,1111122 
DISL,ioos:station:DISL:DISL:1,2012-12-01T22:00:00Z,30.2513,-88.0778,6.512,8.53,1111122 
DISL,ioos:station:DISL:DISL:1,2012-12-01T22:30:00Z,30.2513,-88.0778,6.582,8.35,1111122 
DISL,ioos:station:DISL:DISL:1,2012-12-01T23:00:00Z,30.2513,-88.0778,6.659,8.37,1111122 
DISL,ioos:station:DISL:DISL:1,2012-12-01T23:30:00Z,30.2513,-88.0778,6.683,8.45,1111122 
DISL,ioos:station:DISL:DISL:1,2012-12-02T00:00:00Z,30.2513,-88.0778,6.777,7.95,1111122 
DISL,ioos:station:DISL:DISL:1,2012-12-02T00:30:00Z,30.2513,-88.0778,6.873,7.78,1111122 
DISL,ioos:station:DISL:DISL:1,2012-12-02T01:00:00Z,30.2513,-88.0778,6.939,7.7,1111122 
DISL,ioos:station:DISL:DISL:1,2012-12-02T01:30:00Z,30.2513,-88.0778,7.0,7.55,1111122 
DISL,ioos:station:DISL:DISL:1,2012-12-02T02:00:00Z,30.2513,-88.0778,7.07,7.34,1111122 
DISL,ioos:station:DISL:DISL:1,2012-12-02T02:30:00Z,30.2513,-88.0778,7.17,7.22,1111122 
DISL,ioos:station:DISL:DISL:1,2012-12-02T03:00:00Z,30.2513,-88.0778,7.24,7.13,1111122 
DISL,ioos:station:DISL:DISL:1,2012-12-02T03:30:00Z,30.2513,-88.0778,7.27,7.16,1111122 
DISL,ioos:station:DISL:DISL:1,2012-12-02T04:00:00Z,30.2513,-88.0778,7.31,7.19,1111122 
DISL,ioos:station:DISL:DISL:1,2012-12-02T04:30:00Z,30.2513,-88.0778,7.38,7.28,1111122 
DISL,ioos:station:DISL:DISL:1,2012-12-02T05:00:00Z,30.2513,-88.0778,7.38,7.2,1111122 
DISL,ioos:station:DISL:DISL:1,2012-12-02T05:30:00Z,30.2513,-88.0778,7.41,7.22,1111122 
DISL,ioos:station:DISL:DISL:1,2012-12-02T06:00:00Z,30.2513,-88.0778,7.41,7.28,1111122 
DISL,ioos:station:DISL:DISL:1,2012-12-02T06:30:00Z,30.2513,-88.0778,7.39,7.67,1111122 
DISL,ioos:station:DISL:DISL:1,2012-12-02T07:00:00Z,30.2513,-88.0778,7.34,8.06,1111122 
DISL,ioos:station:DISL:DISL:1,2012-12-02T07:30:00Z,30.2513,-88.0778,7.29,8.43,1111122 
DISL,ioos:station:DISL:DISL:1,2012-12-02T08:00:00Z,30.2513,-88.0778,7.23,8.1,1111122 
DISL,ioos:station:DISL:DISL:1,2012-12-02T08:30:00Z,30.2513,-88.0778,7.13,8.3,1111122 
DISL,ioos:station:DISL:DISL:1,2012-12-02T09:00:00Z,30.2513,-88.0778,7.07,8.51,1111122 
DISL,ioos:station:DISL:DISL:1,2012-12-02T09:30:00Z,30.2513,-88.0778,6.981,8.45,1111122 
DISL,ioos:station:DISL:DISL:1,2012-12-02T10:00:00Z,30.2513,-88.0778,6.871,8.35,1111122 
DISL,ioos:station:DISL:DISL:1,2012-12-02T10:30:00Z,30.2513,-88.0778,6.761,8.2,1111122 
DISL,ioos:station:DISL:DISL:1,2012-12-02T11:00:00Z,30.2513,-88.0778,6.645,8.96,1111122 
DISL,ioos:station:DISL:DISL:1,2012-12-02T11:30:00Z,30.2513,-88.0778,6.563,8.9,1111122 
DISL,ioos:station:DISL:DISL:1,2012-12-02T12:00:00Z,30.2513,-88.0778,6.473,8.86,1111122 
DISL,ioos:station:DISL:DISL:1,2012-12-02T12:30:00Z,30.2513,-88.0778,6.412,8.84,1111122 
DISL,ioos:station:DISL:DISL:1,2012-12-02T13:00:00Z,30.2513,-88.0778,6.325,8.87,1111122 
DISL,ioos:station:DISL:DISL:1,2012-12-02T13:30:00Z,30.2513,-88.0778,6.252,8.97,1111122 
DISL,ioos:station:DISL:DISL:1,2012-12-02T14:00:00Z,30.2513,-88.0778,6.173,8.98,1111122 
DISL,ioos:station:DISL:DISL:1,2012-12-02T14:30:00Z,30.2513,-88.0778,6.109,8.93,1111122 
DISL,ioos:station:DISL:DISL:1,2012-12-02T15:00:00Z,30.2513,-88.0778,6.04,9.01,1111122 
DISL,ioos:station:DISL:DISL:1,2012-12-02T15:30:00Z,30.2513,-88.0778,5.973,9.04,1111122 
DISL,ioos:station:DISL:DISL:1,2012-12-02T16:00:00Z,30.2513,-88.0778,5.925,9.13,1111122 
DISL,ioos:station:DISL:DISL:1,2012-12-02T16:30:00Z,30.2513,-88.0778,5.93,9.23,1111122 
DISL,ioos:station:DISL:DISL:1,2012-12-02T17:00:00Z,30.2513,-88.0778,5.901,9.24,1111122 
DISL,ioos:station:DISL:DISL:1,2012-12-02T17:30:00Z,30.2513,-88.0778,5.917,9.23,1111122 
DISL,ioos:station:DISL:DISL:1,2012-12-02T18:00:00Z,30.2513,-88.0778,5.916,9.26,1111122 
DISL,ioos:station:DISL:DISL:1,2012-12-02T18:30:00Z,30.2513,-88.0778,5.944,9.17,1111122 
DISL,ioos:station:DISL:DISL:1,2012-12-02T19:00:00Z,30.2513,-88.0778,5.958,9.14,1111122 
DISL,ioos:station:DISL:DISL:1,2012-12-02T19:30:00Z,30.2513,-88.0778,6.014,9.06,1111122 
DISL,ioos:station:DISL:DISL:1,2012-12-02T20:00:00Z,30.2513,-88.0778,6.045,8.97,1111122 
DISL,ioos:station:DISL:DISL:1,2012-12-02T20:30:00Z,30.2513,-88.0778,6.017,8.87,1111122 
DISL,ioos:station:DISL:DISL:1,2012-12-02T21:00:00Z,30.2513,-88.0778,6.115,8.7,1111122 
DISL,ioos:station:DISL:DISL:1,2012-12-02T21:30:00Z,30.2513,-88.0778,6.231,8.67,1111122 
DISL,ioos:station:DISL:DISL:1,2012-12-02T22:00:00Z,30.2513,-88.0778,6.308,8.86,1111122 
DISL,ioos:station:DISL:DISL:1,2012-12-02T22:30:00Z,30.2513,-88.0778,6.368,8.82,1111122 
DISL,ioos:station:DISL:DISL:1,2012-12-02T23:00:00Z,30.2513,-88.0778,6.461,8.94,1111122 
DISL,ioos:station:DISL:DISL:1,2012-12-02T23:30:00Z,30.2513,-88.0778,6.556,9.09,1111122 
DISL,ioos:station:DISL:DISL:1,2012-12-03T00:00:00Z,30.2513,-88.0778,6.626,8.74,1111122 
DISL,ioos:station:DISL:DISL:1,2012-12-03T00:30:00Z,30.2513,-88.0778,6.71,7.89,1111122 
DISL,ioos:station:DISL:DISL:1,2012-12-03T01:00:00Z,30.2513,-88.0778,6.795,7.98,1111122 
DISL,ioos:station:DISL:DISL:1,2012-12-03T01:30:00Z,30.2513,-88.0778,6.87,7.56,1111122 
DISL,ioos:station:DISL:DISL:1,2012-12-03T02:00:00Z,30.2513,-88.0778,6.989,7.27,1111122 
DISL,ioos:station:DISL:DISL:1,2012-12-03T02:30:00Z,30.2513,-88.0778,7.06,7.24,1111122 
DISL,ioos:station:DISL:DISL:1,2012-12-03T03:00:00Z,30.2513,-88.0778,7.15,7.26,1111122 
DISL,ioos:station:DISL:DISL:1,2012-12-03T03:30:00Z,30.2513,-88.0778,7.2,7.19,1111122 
DISL,ioos:station:DISL:DISL:1,2012-12-03T04:00:00Z,30.2513,-88.0778,7.28,7.27,1111122 
DISL,ioos:station:DISL:DISL:1,2012-12-03T04:30:00Z,30.2513,-88.0778,7.33,7.26,1111122 
DISL,ioos:station:DISL:DISL:1,2012-12-03T05:00:00Z,30.2513,-88.0778,7.34,7.37,1111122 
DISL,ioos:station:DISL:DISL:1,2012-12-03T05:30:00Z,30.2513,-88.0778,7.37,7.49,1111122 
DISL,ioos:station:DISL:DISL:1,2012-12-03T06:00:00Z,30.2513,-88.0778,7.39,8.06,1111122 
DISL,ioos:station:DISL:DISL:1,2012-12-03T06:30:00Z,30.2513,-88.0778,7.36,8.51,1111122 
DISL,ioos:station:DISL:DISL:1,2012-12-03T07:00:00Z,30.2513,-88.0778,7.32,8.51,1111122 
DISL,ioos:station:DISL:DISL:1,2012-12-03T07:30:00Z,30.2513,-88.0778,7.31,8.33,1111122 
DISL,ioos:station:DISL:DISL:1,2012-12-03T08:00:00Z,30.2513,-88.0778,7.25,8.3,1111122 
DISL,ioos:station:DISL:DISL:1,2012-12-03T08:30:00Z,30.2513,-88.0778,7.19,8.37,1111122 
DISL,ioos:station:DISL:DISL:1,2012-12-03T09:00:00Z,30.2513,-88.0778,7.1,8.55,1111122 
DISL,ioos:station:DISL:DISL:1,2012-12-03T09:30:00Z,30.2513,-88.0778,7.0,8.94,1111122 
DISL,ioos:station:DISL:DISL:1,2012-12-03T10:00:00Z,30.2513,-88.0778,6.804,8.97,1111122 
DISL,ioos:station:DISL:DISL:1,2012-12-03T10:30:00Z,30.2513,-88.0778,6.783,8.91,1111122 
DISL,ioos:station:DISL:DISL:1,2012-12-03T11:00:00Z,30.2513,-88.0778,6.665,8.98,1111122 
DISL,ioos:station:DISL:DISL:1,2012-12-03T11:30:00Z,30.2513,-88.0778,6.59,9.08,1111122 
DISL,ioos:station:DISL:DISL:1,2012-12-03T12:00:00Z,30.2513,-88.0778,6.518,9.03,1111122 
DISL,ioos:station:DISL:DISL:1,2012-12-03T12:30:00Z,30.2513,-88.0778,6.425,8.94,1111122 
DISL,ioos:station:DISL:DISL:1,2012-12-03T13:00:00Z,30.2513,-88.0778,6.409,8.85,1111122 
DISL,ioos:station:DISL:DISL:1,2012-12-03T13:30:00Z,30.2513,-88.0778,6.331,8.83,1111122 
DISL,ioos:station:DISL:DISL:1,2012-12-03T14:00:00Z,30.2513,-88.0778,6.253,8.78,1111122 
DISL,ioos:station:DISL:DISL:1,2012-12-03T14:30:00Z,30.2513,-88.0778,6.183,8.85,1111122 
DISL,ioos:station:DISL:DISL:1,2012-12-03T15:00:00Z,30.2513,-88.0778,6.127,8.99,1111122 
DISL,ioos:station:DISL:DISL:1,2012-12-03T15:30:00Z,30.2513,-88.0778,6.08,9.05,1111122 
DISL,ioos:station:DISL:DISL:1,2012-12-03T16:00:00Z,30.2513,-88.0778,6.063,9.05,1111122 
DISL,ioos:station:DISL:DISL:1,2012-12-03T16:30:00Z,30.2513,-88.0778,6.03,9.21,1111122 
DISL,ioos:station:DISL:DISL:1,2012-12-03T17:00:00Z,30.2513,-88.0778,6.065,9.29,1111122 
DISL,ioos:station:DISL:DISL:1,2012-12-03T17:30:00Z,30.2513,-88.0778,6.038,9.35,1111122 
DISL,ioos:station:DISL:DISL:1,2012-12-03T18:00:00Z,30.2513,-88.0778,6.032,9.24,1111122 
DISL,ioos:station:DISL:DISL:1,2012-12-03T18:30:00Z,30.2513,-88.0778,6.078,9.2,1111122 
DISL,ioos:station:DISL:DISL:1,2012-12-03T19:00:00Z,30.2513,-88.0778,6.081,8.84,1111122 
DISL,ioos:station:DISL:DISL:1,2012-12-03T19:30:00Z,30.2513,-88.0778,6.103,8.71,1111122 
DISL,ioos:station:DISL:DISL:1,2012-12-03T20:00:00Z,30.2513,-88.0778,6.136,8.63,1111122 
DISL,ioos:station:DISL:DISL:1,2012-12-03T20:30:00Z,30.2513,-88.0778,6.194,8.66,1111122 
DISL,ioos:station:DISL:DISL:1,2012-12-03T21:00:00Z,30.2513,-88.0778,6.25,8.59,1111122 
DISL,ioos:station:DISL:DISL:1,2012-12-03T21:30:00Z,30.2513,-88.0778,6.323,8.68,1111122 
DISL,ioos:station:DISL:DISL:1,2012-12-03T22:00:00Z,30.2513,-88.0778,6.394,8.78,1111122 
DISL,ioos:station:DISL:DISL:1,2012-12-03T22:30:00Z,30.2513,-88.0778,6.472,8.85,1111122 
DISL,ioos:station:DISL:DISL:1,2012-12-03T23:00:00Z,30.2513,-88.0778,6.547,8.58,1111122 
DISL,ioos:station:DISL:DISL:1,2012-12-03T23:30:00Z,30.2513,-88.0778,6.587,8.65,1111122 
DISL,ioos:station:DISL:DISL:1,2012-12-04T00:00:00Z,30.2513,-88.0778,6.692,7.62,1111122 
DISL,ioos:station:DISL:DISL:1,2012-12-04T00:30:00Z,30.2513,-88.0778,6.762,7.46,1111122 
DISL,ioos:station:DISL:DISL:1,2012-12-04T01:00:00Z,30.2513,-88.0778,6.875,7.25,1111122 
DISL,ioos:station:DISL:DISL:1,2012-12-04T01:30:00Z,30.2513,-88.0778,6.906,7.03,1111122 
DISL,ioos:station:DISL:DISL:1,2012-12-04T02:00:00Z,30.2513,-88.0778,7.0,7.02,1111122 
DISL,ioos:station:DISL:DISL:1,2012-12-04T02:30:00Z,30.2513,-88.0778,7.1,6.91,1111122 
DISL,ioos:station:DISL:DISL:1,2012-12-04T03:00:00Z,30.2513,-88.0778,7.11,6.92,1111122 
DISL,ioos:station:DISL:DISL:1,2012-12-04T03:30:00Z,30.2513,-88.0778,7.21,7.01,1111122 
DISL,ioos:station:DISL:DISL:1,2012-12-04T04:00:00Z,30.2513,-88.0778,7.3,6.92,1111122 
DISL,ioos:station:DISL:DISL:1,2012-12-04T04:30:00Z,30.2513,-88.0778,7.33,6.86,1111122 
DISL,ioos:station:DISL:DISL:1,2012-12-04T05:00:00Z,30.2513,-88.0778,7.37,6.89,1111122 
DISL,ioos:station:DISL:DISL:1,2012-12-04T05:30:00Z,30.2513,-88.0778,7.41,6.94,1111122 
DISL,ioos:station:DISL:DISL:1,2012-12-04T06:00:00Z,30.2513,-88.0778,7.44,7.06,1111122 
DISL,ioos:station:DISL:DISL:1,2012-12-04T06:30:00Z,30.2513,-88.0778,7.41,7.03,1111122 
DISL,ioos:station:DISL:DISL:1,2012-12-04T07:00:00Z,30.2513,-88.0778,7.44,7.26,1111122 
DISL,ioos:station:DISL:DISL:1,2012-12-04T07:30:00Z,30.2513,-88.0778,7.44,7.36,1111122 
DISL,ioos:station:DISL:DISL:1,2012-12-04T08:00:00Z,30.2513,-88.0778,7.42,7.35,1111122 
DISL,ioos:station:DISL:DISL:1,2012-12-04T08:30:00Z,30.2513,-88.0778,7.37,7.67,1111122 
DISL,ioos:station:DISL:DISL:1,2012-12-04T09:00:00Z,30.2513,-88.0778,7.34,7.97,1111122 
DISL,ioos:station:DISL:DISL:1,2012-12-04T09:30:00Z,30.2513,-88.0778,7.22,7.87,1111122 
DISL,ioos:station:DISL:DISL:1,2012-12-04T10:00:00Z,30.2513,-88.0778,7.19,8.05,1111122 
DISL,ioos:station:DISL:DISL:1,2012-12-04T10:30:00Z,30.2513,-88.0778,7.14,8.27,1111122 
DISL,ioos:station:DISL:DISL:1,2012-12-04T11:00:00Z,30.2513,-88.0778,7.06,8.26,1111122 
DISL,ioos:station:DISL:DISL:1,2012-12-04T11:30:00Z,30.2513,-88.0778,6.859,7.9,1111122 
DISL,ioos:station:DISL:DISL:1,2012-12-04T12:00:00Z,30.2513,-88.0778,6.885,8.63,1111122 
DISL,ioos:station:DISL:DISL:1,2012-12-04T12:30:00Z,30.2513,-88.0778,6.812,8.77,1111122 
DISL,ioos:station:DISL:DISL:1,2012-12-04T13:00:00Z,30.2513,-88.0778,6.687,8.76,1111122 
DISL,ioos:station:DISL:DISL:1,2012-12-04T13:30:00Z,30.2513,-88.0778,6.655,8.73,1111122 
DISL,ioos:station:DISL:DISL:1,2012-12-04T14:00:00Z,30.2513,-88.0778,6.616,8.77,1111122 
DISL,ioos:station:DISL:DISL:1,2012-12-04T14:30:00Z,30.2513,-88.0778,6.559,8.89,1111122 
DISL,ioos:station:DISL:DISL:1,2012-12-04T15:00:00Z,30.2513,-88.0778,6.507,8.98,1111122 
DISL,ioos:station:DISL:DISL:1,2012-12-04T15:30:00Z,30.2513,-88.0778,6.437,9.03,1111122 
DISL,ioos:station:DISL:DISL:1,2012-12-04T16:00:00Z,30.2513,-88.0778,6.383,9.07,1111122 
DISL,ioos:station:DISL:DISL:1,2012-12-04T16:30:00Z,30.2513,-88.0778,6.39,9.14,1111122 
DISL,ioos:station:DISL:DISL:1,2012-12-04T17:00:00Z,30.2513,-88.0778,6.352,9.16,1111122 
DISL,ioos:station:DISL:DISL:1,2012-12-04T17:30:00Z,30.2513,-88.0778,6.343,9.06,1111122 
DISL,ioos:station:DISL:DISL:1,2012-12-04T18:00:00Z,30.2513,-88.0778,6.332,9.05,1111122 
DISL,ioos:station:DISL:DISL:1,2012-12-04T18:30:00Z,30.2513,-88.0778,6.298,9.2,1111122 
DISL,ioos:station:DISL:DISL:1,2012-12-04T19:00:00Z,30.2513,-88.0778,6.323,9.37,1111122 
DISL,ioos:station:DISL:DISL:1,2012-12-04T19:30:00Z,30.2513,-88.0778,6.308,9.09,1111122 
DISL,ioos:station:DISL:DISL:1,2012-12-04T20:00:00Z,30.2513,-88.0778,6.321,8.79,1111122 
DISL,ioos:station:DISL:DISL:1,2012-12-04T20:30:00Z,30.2513,-88.0778,6.353,8.32,1111122 
DISL,ioos:station:DISL:DISL:1,2012-12-04T21:00:00Z,30.2513,-88.0778,6.454,8.02,1111122 
DISL,ioos:station:DISL:DISL:1,2012-12-04T21:30:00Z,30.2513,-88.0778,6.487,7.98,1111122 
DISL,ioos:station:DISL:DISL:1,2012-12-04T22:00:00Z,30.2513,-88.0778,6.516,7.85,1111122 
DISL,ioos:station:DISL:DISL:1,2012-12-04T22:30:00Z,30.2513,-88.0778,6.54,7.9,1111122 
DISL,ioos:station:DISL:DISL:1,2012-12-04T23:00:00Z,30.2513,-88.0778,6.578,7.93,1111122 
DISL,ioos:station:DISL:DISL:1,2012-12-04T23:30:00Z,30.2513,-88.0778,6.639,8.05,1111122 
DISL,ioos:station:DISL:DISL:1,2012-12-05T00:00:00Z,30.2513,-88.0778,6.75,7.9,1111122 
DISL,ioos:station:DISL:DISL:1,2012-12-05T00:30:00Z,30.2513,-88.0778,6.877,8.09,1111122 
DISL,ioos:station:DISL:DISL:1,2012-12-05T01:00:00Z,30.2513,-88.0778,6.856,8.01,1111122 
DISL,ioos:station:DISL:DISL:1,2012-12-05T01:30:00Z,30.2513,-88.0778,6.875,7.92,1111122 
DISL,ioos:station:DISL:DISL:1,2012-12-05T02:00:00Z,30.2513,-88.0778,6.958,7.87,1111122 
DISL,ioos:station:DISL:DISL:1,2012-12-05T02:30:00Z,30.2513,-88.0778,7.05,7.5,1111122 
DISL,ioos:station:DISL:DISL:1,2012-12-05T03:00:00Z,30.2513,-88.0778,7.1,7.09,1111122 
DISL,ioos:station:DISL:DISL:1,2012-12-05T03:30:00Z,30.2513,-88.0778,7.08,6.93,1111122 
DISL,ioos:station:DISL:DISL:1,2012-12-05T04:00:00Z,30.2513,-88.0778,7.17,6.81,1111122 
DISL,ioos:station:DISL:DISL:1,2012-12-05T04:30:00Z,30.2513,-88.0778,7.2,6.9,1111122 
DISL,ioos:station:DISL:DISL:1,2012-12-05T05:00:00Z,30.2513,-88.0778,7.24,6.98,1111122 
DISL,ioos:station:DISL:DISL:1,2012-12-05T05:30:00Z,30.2513,-88.0778,7.23,6.96,1111122 
DISL,ioos:station:DISL:DISL:1,2012-12-05T06:00:00Z,30.2513,-88.0778,7.27,7.06,1111122 
DISL,ioos:station:DISL:DISL:1,2012-12-05T06:30:00Z,30.2513,-88.0778,7.19,7.32,1111122 
DISL,ioos:station:DISL:DISL:1,2012-12-05T07:00:00Z,30.2513,-88.0778,7.19,6.9,1111122 
DISL,ioos:station:DISL:DISL:1,2012-12-05T07:30:00Z,30.2513,-88.0778,7.16,7.09,1111122 
DISL,ioos:station:DISL:DISL:1,2012-12-05T08:00:00Z,30.2513,-88.0778,7.15,7.3,1111122 
DISL,ioos:station:DISL:DISL:1,2012-12-05T08:30:00Z,30.2513,-88.0778,7.11,7.19,1111122 
DISL,ioos:station:DISL:DISL:1,2012-12-05T09:00:00Z,30.2513,-88.0778,7.08,7.6,1111122 
DISL,ioos:station:DISL:DISL:1,2012-12-05T09:30:00Z,30.2513,-88.0778,7.02,7.75,1111122 
DISL,ioos:station:DISL:DISL:1,2012-12-05T10:00:00Z,30.2513,-88.0778,6.918,7.8,1111122 
DISL,ioos:station:DISL:DISL:1,2012-12-05T10:30:00Z,30.2513,-88.0778,6.864,7.88,1111122 
DISL,ioos:station:DISL:DISL:1,2012-12-05T11:00:00Z,30.2513,-88.0778,6.811,7.88,1111122 
DISL,ioos:station:DISL:DISL:1,2012-12-05T11:30:00Z,30.2513,-88.0778,6.758,8.55,1111122 
DISL,ioos:station:DISL:DISL:1,2012-12-05T12:00:00Z,30.2513,-88.0778,6.665,8.62,1111122 
DISL,ioos:station:DISL:DISL:1,2012-12-05T12:30:00Z,30.2513,-88.0778,6.571,8.71,1111122 
DISL,ioos:station:DISL:DISL:1,2012-12-05T13:00:00Z,30.2513,-88.0778,6.509,8.61,1111122 
DISL,ioos:station:DISL:DISL:1,2012-12-05T13:30:00Z,30.2513,-88.0778,6.452,8.63,1111122 
DISL,ioos:station:DISL:DISL:1,2012-12-05T14:00:00Z,30.2513,-88.0778,6.398,8.65,1111122 
DISL,ioos:station:DISL:DISL:1,2012-12-05T14:30:00Z,30.2513,-88.0778,6.331,8.68,1111122 
DISL,ioos:station:DISL:DISL:1,2012-12-05T15:00:00Z,30.2513,-88.0778,6.379,8.7,1111122 
DISL,ioos:station:DISL:DISL:1,2012-12-05T15:30:00Z,30.2513,-88.0778,6.273,8.73,1111122 
DISL,ioos:station:DISL:DISL:1,2012-12-05T16:00:00Z,30.2513,-88.0778,6.204,8.78,1111122 
DISL,ioos:station:DISL:DISL:1,2012-12-05T16:30:00Z,30.2513,-88.0778,6.21,8.86,1111122 
DISL,ioos:station:DISL:DISL:1,2012-12-05T17:00:00Z,30.2513,-88.0778,6.211,8.93,1111122 
DISL,ioos:station:DISL:DISL:1,2012-12-05T17:30:00Z,30.2513,-88.0778,6.271,8.87,1111122 
DISL,ioos:station:DISL:DISL:1,2012-12-05T18:00:00Z,30.2513,-88.0778,6.215,8.78,1111122 
DISL,ioos:station:DISL:DISL:1,2012-12-05T18:30:00Z,30.2513,-88.0778,6.265,8.74,1111122 
DISL,ioos:station:DISL:DISL:1,2012-12-05T19:00:00Z,30.2513,-88.0778,6.25,7.81,1111122 
DISL,ioos:station:DISL:DISL:1,2012-12-05T19:30:00Z,30.2513,-88.0778,6.276,7.61,1111122 
DISL,ioos:station:DISL:DISL:1,2012-12-05T20:00:00Z,30.2513,-88.0778,6.331,7.65,1111122 
DISL,ioos:station:DISL:DISL:1,2012-12-05T20:30:00Z,30.2513,-88.0778,6.323,7.52,1111122 
DISL,ioos:station:DISL:DISL:1,2012-12-05T21:00:00Z,30.2513,-88.0778,6.369,7.36,1111122 
DISL,ioos:station:DISL:DISL:1,2012-12-05T21:30:00Z,30.2513,-88.0778,6.43,7.47,1111122 
DISL,ioos:station:DISL:DISL:1,2012-12-05T22:00:00Z,30.2513,-88.0778,6.503,7.41,1111122 
DISL,ioos:station:DISL:DISL:1,2012-12-05T22:30:00Z,30.2513,-88.0778,6.558,7.5,1111122 
DISL,ioos:station:DISL:DISL:1,2012-12-05T23:00:00Z,30.2513,-88.0778,6.62,7.48,1111122 
DISL,ioos:station:DISL:DISL:1,2012-12-05T23:30:00Z,30.2513,-88.0778,6.642,7.42,1111122 
DISL,ioos:station:DISL:DISL:1,2012-12-06T00:00:00Z,30.2513,-88.0778,6.732,7.61,1111122 
DISL,ioos:station:DISL:DISL:1,2012-12-06T00:30:00Z,30.2513,-88.0778,6.767,7.59,1111122 
DISL,ioos:station:DISL:DISL:1,2012-12-06T01:00:00Z,30.2513,-88.0778,6.807,7.84,1111122 
DISL,ioos:station:DISL:DISL:1,2012-12-06T01:30:00Z,30.2513,-88.0778,6.88,7.67,1111122 
DISL,ioos:station:DISL:DISL:1,2012-12-06T02:00:00Z,30.2513,-88.0778,6.898,7.71,1111122 
DISL,ioos:station:DISL:DISL:1,2012-12-06T02:30:00Z,30.2513,-88.0778,6.966,7.36,1111122 
DISL,ioos:station:DISL:DISL:1,2012-12-06T03:00:00Z,30.2513,-88.0778,6.978,7.35,1111122 
DISL,ioos:station:DISL:DISL:1,2012-12-06T03:30:00Z,30.2513,-88.0778,7.01,6.98,1111122 
DISL,ioos:station:DISL:DISL:1,2012-12-06T04:00:00Z,30.2513,-88.0778,7.05,6.93,1111122 
DISL,ioos:station:DISL:DISL:1,2012-12-06T04:30:00Z,30.2513,-88.0778,7.06,6.8,1111122 
DISL,ioos:station:DISL:DISL:1,2012-12-06T05:00:00Z,30.2513,-88.0778,7.05,7.02,1111122 
DISL,ioos:station:DISL:DISL:1,2012-12-06T05:30:00Z,30.2513,-88.0778,7.05,6.84,1111122 
DISL,ioos:station:DISL:DISL:1,2012-12-06T06:00:00Z,30.2513,-88.0778,7.05,6.99,1111122 
DISL,ioos:station:DISL:DISL:1,2012-12-06T06:30:00Z,30.2513,-88.0778,7.04,7.09,1111122 
DISL,ioos:station:DISL:DISL:1,2012-12-06T07:00:00Z,30.2513,-88.0778,7.04,7.39,1111122 
DISL,ioos:station:DISL:DISL:1,2012-12-06T07:30:00Z,30.2513,-88.0778,6.964,7.87,1111122 
DISL,ioos:station:DISL:DISL:1,2012-12-06T08:00:00Z,30.2513,-88.0778,6.995,7.69,1111122 
DISL,ioos:station:DISL:DISL:1,2012-12-06T08:30:00Z,30.2513,-88.0778,6.987,8.33,1111122 
DISL,ioos:station:DISL:DISL:1,2012-12-06T09:00:00Z,30.2513,-88.0778,6.937,7.74,1111122 
DISL,ioos:station:DISL:DISL:1,2012-12-06T09:30:00Z,30.2513,-88.0778,6.882,7.96,1111122 
DISL,ioos:station:DISL:DISL:1,2012-12-06T10:00:00Z,30.2513,-88.0778,6.895,8.53,1111122 
DISL,ioos:station:DISL:DISL:1,2012-12-06T10:30:00Z,30.2513,-88.0778,6.865,8.48,1111122 
DISL,ioos:station:DISL:DISL:1,2012-12-06T11:00:00Z,30.2513,-88.0778,6.827,8.54,1111122 
DISL,ioos:station:DISL:DISL:1,2012-12-06T11:30:00Z,30.2513,-88.0778,6.782,8.47,1111122 
DISL,ioos:station:DISL:DISL:1,2012-12-06T12:00:00Z,30.2513,-88.0778,6.724,8.46,1111122 
DISL,ioos:station:DISL:DISL:1,2012-12-06T12:30:00Z,30.2513,-88.0778,6.675,8.43,1111122 
DISL,ioos:station:DISL:DISL:1,2012-12-06T13:00:00Z,30.2513,-88.0778,6.645,8.42,1111122 
DISL,ioos:station:DISL:DISL:1,2012-12-06T13:30:00Z,30.2513,-88.0778,6.618,8.44,1111122 
DISL,ioos:station:DISL:DISL:1,2012-12-06T14:00:00Z,30.2513,-88.0778,6.577,8.51,1111122 
DISL,ioos:station:DISL:DISL:1,2012-12-06T14:30:00Z,30.2513,-88.0778,6.524,8.52,1111122 
DISL,ioos:station:DISL:DISL:1,2012-12-06T15:00:00Z,30.2513,-88.0778,6.511,8.57,1111122 
DISL,ioos:station:DISL:DISL:1,2012-12-06T15:30:00Z,30.2513,-88.0778,6.467,8.64,1111122 
DISL,ioos:station:DISL:DISL:1,2012-12-06T16:00:00Z,30.2513,-88.0778,6.485,8.73,1111122 